Weather in Kanava

Russia / Komi Republic     61°07′06″N   55°02′20″E
temp.,
°C
wind,
m/s
gust,
m/s
humid.,
%
clouds,
%
prec.,
mm/h
press.,
hPa
HPBL,
m
15 april, thu
thu1500:00+8sw5167785 0.0 1017484
03:00+7sw51584100 0.0 1017483
06:00+8wsw41286100 0.0 1016667
09:00+5nnw4889100 0.1 1020672
12:00+4nw3783100 0.4 1021718
15:00+6nw3762100 0.5 10221383
18:00+4nnw3964100 0.0 1024378
21:000nw26812 0.0 1026116
16 april, fri
fri1600:00−1nnw29845 0.0 1028222
03:00−2nnw24865 0.0 1030112
06:000nne12745 0.0 1031236
09:00+4nw225225 0.0 1031948
12:00+6wnw344040 0.0 10291448
15:00+7wnw464111 0.0 10281636
18:00+4wnw24645 0.0 102759
21:00+1w247643 0.0 102757
17 april, sat
sat1700:000wnw23865 0.0 102750
03:00−1nw24965 0.0 102898
06:00+1nw258742 0.0 1028327
09:00+3nw4667100 0.1 10271107
12:00+6wnw475199 0.0 10261335
15:00+8wnw5115382 0.0 10231720
18:00+6wnw6146570 0.0 10211372
21:00+4nw41075100 0.2 1020989
18 april, sun
sun1800:00−1n4118283 2.3 1022811
03:00−3n4107623 2.3 1024957
06:00−2n597185 0.1 10271285
09:00−1nne5848100 0.1 10291801
12:00+1nne5739100 0.0 10312256
15:00+1nne4635100 0.0 10332337
18:00−1nne36455 0.0 1034256
21:00−4n26605 0.0 1036131
19 april, mon
mon1900:00−4n26630 0.0 1037210
03:00−5nnw26630 0.0 1039184
06:00−3n36465 0.0 1040667
09:000nnw35345 0.0 10391390
12:00+3nnw35305 0.0 10371731
15:00+4nnw35295 0.0 10361748
18:00+1nw114732 0.0 103610
21:00−2w115757 0.0 103610